{"data":{"norad_id":84406,"epoch":"2026-05-24T05:08:22.407072Z","epoch_age_seconds":153613,"freshness":"FRESH","line1":"1 84406U          26144.21414823  .00000268  00000+0  16287-2 0  9995","line2":"2 84406 101.7309 295.5338 0046700  83.7482  90.8051 12.67571040 69875","mean_motion":12.6757104,"eccentricity":0.00467,"inclination_deg":101.7309,"raan_deg":295.5338,"arg_perigee_deg":83.7482,"mean_anomaly_deg":90.8051,"bstar":0.0016287,"rev_number":6987,"period_min":113.60310030434,"perigee_km":1355.5643428166,"apogee_km":1428.1360231054,"semimajor_km":7769.987182961,"source":"CELESTRAK","updated_at":"2026-05-25T13:38:11.427163Z"}}